Location: Street
(51.1247°N, 2.7429°W)
Time: 08:36:16
(UTC+01:00)

PCSat - Pass Details

Date: 04 April 2023
Orbit: 783 x 794 km, 67.1° (Epoch: 29 May)

Event Time Altitude Azimuth Distance (km) Brightness Sun altitude
Rises 20:46:11 0° 312° (NW) 3,298 14.3 -9.5°
Reaches altitude 10° 20:49:35 10° 334° (NNW) 2,370 12.8 -10.0°
Maximum altitude 20:52:55 16° 12° (NNE) 1,970 11.8 -10.5°
Drops below altitude 10° 20:56:15 10° 50° (NE) 2,371 11.8 -11.0°
Enters shadow 20:58:38 - 67° (ENE) 2,993 12.2 -11.3°
